Location: Observatory
(52.1446°N, 0.4624°W)
Time: 06:26:54
(UTC+00:00)

ISS - Pass Details

Date: 06 December 2017
Orbit: 403 x 407 km, 51.6° (Epoch: 12 December)

Event Time Altitude Azimuth Distance (km) Brightness Sun altitude
Rises 16:39:11 0° 245° (WSW) 2,326 2.7 -7.1°
Reaches altitude 10° 16:41:17 10° 241° (WSW) 1,467 0.8 -7.4°
Maximum altitude 16:44:30 55° 162° (SSE) 493 -3.3 -7.8°
Drops below altitude 10° 16:47:44 10° 84° (E) 1,470 -1.6 -8.3°
Enters shadow 16:47:45 10° 84° (E) 1,474 -1.6 -8.3°
